Time,TemperatureF,DewpointF,PressureIn,WindDirection,WindDirectionDegrees,WindSpeedMPH,WindSpeedGustMPH,Humidity,HourlyPrecipIn,Conditions,Clouds,dailyrainin,SolarRadiationWatts/m^2,SoftwareType,DateUTC
2013-01-30 00:00:00,26.0,13.2,30.34,North,360,12.0,12.0,58,0.00,,,0.01,0,Wunderground v.1.15,2013-01-30 07:00:00,
2013-01-30 00:06:00,25.9,13.1,30.34,North,5,9.0,14.0,58,0.00,,,0.00,0,Wunderground v.1.15,2013-01-30 07:06:00,
2013-01-30 00:12:00,25.9,13.1,30.34,North,350,11.0,14.0,58,0.00,,,0.00,0,Wunderground v.1.15,2013-01-30 07:12:00,
2013-01-30 00:18:00,25.7,12.6,30.34,North,355,6.0,14.0,57,0.00,,,0.00,0,Wunderground v.1.15,2013-01-30 07:18:00,
2013-01-30 00:24:00,25.7,12.6,30.34,North,355,10.0,10.0,57,0.00,,,0.00,0,Wunderground v.1.15,2013-01-30 07:24:00,
2013-01-30 00:30:00,25.6,12.5,30.35,North,355,7.0,8.0,57,0.00,,,0.00,0,Wunderground v.1.15,2013-01-30 07:30:00,
2013-01-30 00:36:00,25.5,12.4,30.35,North,5,9.0,11.0,57,0.00,,,0.00,0,Wunderground v.1.15,2013-01-30 07:36:00,
2013-01-30 00:42:00,25.5,12.0,30.35,NNW,348,12.0,12.0,56,0.00,,,0.00,0,Wunderground v.1.15,2013-01-30 07:42:00,
2013-01-30 00:48:00,25.4,11.9,30.35,North,349,5.0,12.0,56,0.00,,,0.00,0,Wunderground v.1.15,2013-01-30 07:48:00,
2013-01-30 00:54:00,25.5,12.0,30.35,North,355,6.0,9.0,56,0.00,,,0.00,0,Wunderground v.1.15,2013-01-30 07:54:00,
2013-01-30 01:00:00,25.4,11.9,30.36,NNE,21,1.0,5.0,56,0.00,,,0.00,0,Wunderground v.1.15,2013-01-30 08:00:00,
2013-01-30 01:06:00,25.3,11.8,30.36,NNE,27,0.0,6.0,56,0.00,,,0.00,0,Wunderground v.1.15,2013-01-30 08:06:00,
2013-01-30 01:12:00,25.1,11.6,30.37,North,11,0.0,2.0,56,0.00,,,0.00,0,Wunderground v.1.15,2013-01-30 08:12:00,
2013-01-30 01:18:00,24.9,11.0,30.36,NE,34,0.0,3.0,55,0.00,,,0.00,0,Wunderground v.1.15,2013-01-30 08:18:00,
2013-01-30 01:23:00,24.8,11.3,30.36,NE,43,0.0,2.0,56,0.00,,,0.00,0,Wunderground v.1.15,2013-01-30 08:23:00,
2013-01-30 01:29:00,24.4,10.5,30.36,NNW,348,8.0,8.0,55,0.00,,,0.00,0,Wunderground v.1.15,2013-01-30 08:29:00,
2013-01-30 01:34:00,24.5,10.6,30.36,North,355,9.0,9.0,55,0.00,,,0.00,0,Wunderground v.1.15,2013-01-30 08:34:00,
2013-01-30 01:40:00,24.3,10.4,30.37,NNW,338,6.0,6.0,55,0.00,,,0.00,0,Wunderground v.1.15,2013-01-30 08:40:00,
2013-01-30 01:45:00,24.3,10.4,30.37,NNW,330,6.0,7.0,55,0.00,,,0.00,0,Wunderground v.1.15,2013-01-30 08:45:00,
2013-01-30 01:50:00,24.2,10.3,30.37,NNW,340,0.0,5.0,55,0.00,,,0.00,0,Wunderground v.1.15,2013-01-30 08:50:00,
2013-01-30 01:56:00,23.9,10.5,30.37,North,355,0.0,5.0,56,0.00,,,0.00,0,Wunderground v.1.15,2013-01-30 08:56:00,
2013-01-30 02:01:00,23.7,10.3,30.37,NNE,24,0.0,1.0,56,0.00,,,0.00,0,Wunderground v.1.15,2013-01-30 09:01:00,
2013-01-30 02:06:00,23.7,9.9,30.38,NNE,15,0.0,4.0,55,0.00,,,0.00,0,Wunderground v.1.15,2013-01-30 09:06:00,
2013-01-30 02:11:00,23.9,10.1,30.37,NNE,24,0.0,0.0,55,0.00,,,0.00,0,Wunderground v.1.15,2013-01-30 09:11:00,
2013-01-30 02:16:00,23.8,10.0,30.37,North,355,6.0,7.0,55,0.00,,,0.00,0,Wunderground v.1.15,2013-01-30 09:16:00,
2013-01-30 02:21:00,23.7,9.9,30.37,North,355,6.0,11.0,55,0.00,,,0.00,0,Wunderground v.1.15,2013-01-30 09:21:00,
2013-01-30 02:26:00,23.7,9.9,30.37,North,5,6.0,12.0,55,0.00,,,0.00,0,Wunderground v.1.15,2013-01-30 09:26:00,
2013-01-30 02:31:00,23.9,9.6,30.37,North,360,1.0,10.0,54,0.00,,,0.00,0,Wunderground v.1.15,2013-01-30 09:31:00,
2013-01-30 02:36:00,23.9,9.6,30.38,NNW,345,5.0,10.0,54,0.00,,,0.00,0,Wunderground v.1.15,2013-01-30 09:36:00,
2013-01-30 02:41:00,23.8,9.6,30.38,North,360,7.0,8.0,54,0.00,,,0.00,0,Wunderground v.1.15,2013-01-30 09:41:00,
2013-01-30 02:46:00,23.6,9.4,30.38,North,5,0.0,8.0,54,0.00,,,0.00,0,Wunderground v.1.15,2013-01-30 09:46:00,
2013-01-30 02:51:00,23.8,9.6,30.38,North,355,0.0,8.0,54,0.00,,,0.00,0,Wunderground v.1.15,2013-01-30 09:51:00,
2013-01-30 02:56:00,23.8,9.6,30.38,North,355,4.0,8.0,54,0.00,,,0.00,0,Wunderground v.1.15,2013-01-30 09:56:00,
2013-01-30 03:01:00,23.8,9.6,30.39,NNW,338,4.0,6.0,54,0.00,,,0.00,0,Wunderground v.1.15,2013-01-30 10:01:00,
2013-01-30 03:06:00,23.9,9.6,30.38,NNW,342,0.0,9.0,54,0.00,,,0.00,0,Wunderground v.1.15,2013-01-30 10:06:00,
2013-01-30 03:11:00,23.6,9.4,30.38,NNW,347,0.0,3.0,54,0.00,,,0.00,0,Wunderground v.1.15,2013-01-30 10:11:00,
2013-01-30 03:16:00,23.4,9.6,30.37,North,360,0.0,3.0,55,0.00,,,0.00,0,Wunderground v.1.15,2013-01-30 10:16:00,
2013-01-30 03:21:00,23.3,9.5,30.37,North,9,0.0,0.0,55,0.00,,,0.00,0,Wunderground v.1.15,2013-01-30 10:21:00,
2013-01-30 03:26:00,23.5,9.3,30.38,North,9,0.0,0.0,54,0.00,,,0.00,0,Wunderground v.1.15,2013-01-30 10:26:00,
2013-01-30 03:31:00,23.5,9.3,30.38,NNE,17,2.0,4.0,54,0.00,,,0.00,0,Wunderground v.1.15,2013-01-30 10:31:00,
2013-01-30 03:36:00,23.6,9.4,30.37,NNE,17,0.0,4.0,54,0.00,,,0.00,0,Wunderground v.1.15,2013-01-30 10:36:00,
2013-01-30 03:41:00,23.6,9.4,30.38,NNE,17,0.0,1.0,54,0.00,,,0.00,0,Wunderground v.1.15,2013-01-30 10:41:00,
2013-01-30 03:46:00,23.1,8.9,30.37,NNE,17,0.0,1.0,54,0.00,,,0.00,0,Wunderground v.1.15,2013-01-30 10:46:00,
2013-01-30 03:51:00,22.5,8.7,30.37,NNE,17,0.0,0.0,55,0.00,,,0.00,0,Wunderground v.1.15,2013-01-30 10:51:00,
2013-01-30 03:56:00,22.1,8.8,30.38,NNE,17,0.0,0.0,56,0.00,,,0.00,0,Wunderground v.1.15,2013-01-30 10:56:00,
2013-01-30 04:01:00,22.2,8.9,30.38,NNE,17,0.0,0.0,56,0.00,,,0.00,0,Wunderground v.1.15,2013-01-30 11:01:00,
2013-01-30 04:06:00,21.9,8.6,30.38,NNE,17,0.0,0.0,56,0.00,,,0.00,0,Wunderground v.1.15,2013-01-30 11:06:00,
2013-01-30 04:11:00,21.8,8.5,30.37,NNE,17,0.0,0.0,56,0.00,,,0.00,0,Wunderground v.1.15,2013-01-30 11:11:00,
2013-01-30 04:16:00,21.9,8.6,30.37,NNE,17,0.0,0.0,56,0.00,,,0.00,0,Wunderground v.1.15,2013-01-30 11:16:00,
2013-01-30 04:21:00,21.8,8.5,30.37,NNE,17,0.0,0.0,56,0.00,,,0.00,0,Wunderground v.1.15,2013-01-30 11:21:00,
2013-01-30 04:26:00,21.2,8.3,30.36,NNE,17,0.0,0.0,57,0.00,,,0.00,0,Wunderground v.1.15,2013-01-30 11:26:00,
2013-01-30 04:31:00,20.4,8.0,30.37,NNE,17,0.0,0.0,58,0.00,,,0.00,0,Wunderground v.1.15,2013-01-30 11:31:00,
2013-01-30 04:36:00,19.7,7.3,30.37,NNE,17,0.0,0.0,58,0.00,,,0.00,0,Wunderground v.1.15,2013-01-30 11:36:00,
2013-01-30 04:41:00,18.6,7.4,30.37,NNE,17,0.0,0.0,61,0.00,,,0.00,0,Wunderground v.1.15,2013-01-30 11:41:00,
2013-01-30 04:46:00,18.4,7.9,30.37,NNE,17,0.0,0.0,63,0.00,,,0.00,0,Wunderground v.1.15,2013-01-30 11:46:00,
2013-01-30 04:52:00,17.9,7.8,30.38,NNE,17,0.0,0.0,64,0.00,,,0.00,0,Wunderground v.1.15,2013-01-30 11:52:00,
2013-01-30 04:57:00,17.2,7.4,30.38,NNE,17,0.0,0.0,65,0.00,,,0.00,0,Wunderground v.1.15,2013-01-30 11:57:00,
2013-01-30 05:02:00,16.8,7.4,30.38,NNE,15,0.0,0.0,66,0.00,,,0.00,0,Wunderground v.1.15,2013-01-30 12:02:00,
2013-01-30 05:07:00,16.7,8.0,30.39,NW,319,0.0,0.0,68,0.00,,,0.00,0,Wunderground v.1.15,2013-01-30 12:07:00,
2013-01-30 05:12:00,17.5,8.7,30.38,WSW,240,0.0,0.0,68,0.00,,,0.00,0,Wunderground v.1.15,2013-01-30 12:12:00,
2013-01-30 05:17:00,19.0,9.5,30.38,WSW,240,0.0,0.0,66,0.00,,,0.00,0,Wunderground v.1.15,2013-01-30 12:17:00,
2013-01-30 05:22:00,19.6,9.4,30.38,WSW,240,0.0,0.0,64,0.00,,,0.00,0,Wunderground v.1.15,2013-01-30 12:22:00,
2013-01-30 05:27:00,19.6,8.7,30.38,WSW,240,0.0,0.0,62,0.00,,,0.00,0,Wunderground v.1.15,2013-01-30 12:27:00,
2013-01-30 05:32:00,19.3,8.8,30.38,WNW,302,0.0,0.0,63,0.00,,,0.00,0,Wunderground v.1.15,2013-01-30 12:32:00,
2013-01-30 05:37:00,19.2,8.7,30.38,WNW,298,0.0,0.0,63,0.00,,,0.00,0,Wunderground v.1.15,2013-01-30 12:37:00,
2013-01-30 05:42:00,18.8,8.3,30.38,WNW,294,0.0,0.0,63,0.00,,,0.00,0,Wunderground v.1.15,2013-01-30 12:42:00,
2013-01-30 05:47:00,18.0,7.9,30.38,WNW,287,0.0,0.0,64,0.00,,,0.00,0,Wunderground v.1.15,2013-01-30 12:47:00,
2013-01-30 05:52:00,18.1,8.0,30.38,SW,230,0.0,0.0,64,0.00,,,0.00,0,Wunderground v.1.15,2013-01-30 12:52:00,
2013-01-30 05:57:00,18.4,8.2,30.38,SW,230,0.0,0.0,64,0.00,,,0.00,0,Wunderground v.1.15,2013-01-30 12:57:00,
2013-01-30 06:02:00,18.9,8.4,30.39,SW,232,0.0,0.0,63,0.00,,,0.00,0,Wunderground v.1.15,2013-01-30 13:02:00,
2013-01-30 06:07:00,19.7,8.8,30.38,SW,222,0.0,0.0,62,0.00,,,0.00,0,Wunderground v.1.15,2013-01-30 13:07:00,
2013-01-30 06:12:00,19.3,8.4,30.39,SW,222,0.0,0.0,62,0.00,,,0.00,0,Wunderground v.1.15,2013-01-30 13:12:00,
2013-01-30 06:17:00,18.9,8.0,30.39,SW,222,0.0,0.0,62,0.00,,,0.00,0,Wunderground v.1.15,2013-01-30 13:17:00,
2013-01-30 06:22:00,18.3,8.1,30.39,SW,222,0.0,0.0,64,0.00,,,0.00,0,Wunderground v.1.15,2013-01-30 13:22:00,
2013-01-30 06:27:00,18.0,8.2,30.39,SW,233,0.0,0.0,65,0.00,,,0.00,0,Wunderground v.1.15,2013-01-30 13:27:00,
2013-01-30 06:32:00,17.9,8.5,30.39,SW,232,0.0,0.0,66,0.00,,,0.00,0,Wunderground v.1.15,2013-01-30 13:32:00,
2013-01-30 06:37:00,17.8,8.4,30.39,SSW,211,0.0,0.0,66,0.00,,,0.00,0,Wunderground v.1.15,2013-01-30 13:37:00,
2013-01-30 06:42:00,18.1,8.3,30.39,West,270,0.0,0.0,65,0.00,,,0.00,0,Wunderground v.1.15,2013-01-30 13:42:00,
2013-01-30 06:47:00,17.7,8.3,30.39,West,259,0.0,0.0,66,0.00,,,0.00,0,Wunderground v.1.15,2013-01-30 13:47:00,
2013-01-30 06:52:00,17.3,7.9,30.39,SSW,202,0.0,0.0,66,0.00,,,0.00,0,Wunderground v.1.15,2013-01-30 13:52:00,
2013-01-30 06:57:00,17.7,8.6,30.39,SSW,203,0.0,6.0,67,0.00,,,0.00,0,Wunderground v.1.15,2013-01-30 13:57:00,
2013-01-30 07:02:00,17.6,8.5,30.40,SSW,204,0.0,1.0,67,0.00,,,0.00,0,Wunderground v.1.15,2013-01-30 14:02:00,
2013-01-30 07:07:00,17.1,8.0,30.40,SSW,203,0.0,1.0,67,0.00,,,0.00,0,Wunderground v.1.15,2013-01-30 14:07:00,
2013-01-30 07:12:00,16.9,7.8,30.40,West,267,0.0,0.0,67,0.00,,,0.00,0,Wunderground v.1.15,2013-01-30 14:12:00,
2013-01-30 07:17:00,16.8,8.1,30.40,West,267,0.0,0.0,68,0.00,,,0.00,0,Wunderground v.1.15,2013-01-30 14:17:00,
2013-01-30 07:22:00,17.0,8.3,30.40,West,267,0.0,0.0,68,0.00,,,0.00,0,Wunderground v.1.15,2013-01-30 14:22:00,
2013-01-30 07:27:00,16.8,7.7,30.41,West,271,0.0,0.0,67,0.00,,,0.00,5,Wunderground v.1.15,2013-01-30 14:27:00,
2013-01-30 07:32:00,16.5,7.8,30.41,West,271,0.0,0.0,68,0.00,,,0.00,7,Wunderground v.1.15,2013-01-30 14:32:00,
2013-01-30 07:37:00,16.6,8.2,30.41,South,178,0.0,0.0,69,0.00,,,0.00,9,Wunderground v.1.15,2013-01-30 14:37:00,
2013-01-30 07:42:00,17.0,8.3,30.41,West,260,6.0,8.0,68,0.00,,,0.00,11,Wunderground v.1.15,2013-01-30 14:42:00,
2013-01-30 07:47:00,17.1,8.3,30.41,West,264,0.0,8.0,68,0.00,,,0.00,16,Wunderground v.1.15,2013-01-30 14:47:00,
2013-01-30 07:52:00,17.1,8.3,30.41,West,263,0.0,2.0,68,0.00,,,0.00,30,Wunderground v.1.15,2013-01-30 14:52:00,
2013-01-30 07:57:00,17.5,8.7,30.41,SW,218,0.0,2.0,68,0.00,,,0.00,40,Wunderground v.1.15,2013-01-30 14:57:00,
2013-01-30 08:02:00,17.8,9.0,30.42,NW,306,2.0,3.0,68,0.00,,,0.00,56,Wunderground v.1.15,2013-01-30 15:02:00,
2013-01-30 08:07:00,18.0,8.9,30.42,WSW,246,7.0,9.0,67,0.00,,,0.00,72,Wunderground v.1.15,2013-01-30 15:07:00,
2013-01-30 08:12:00,18.2,9.1,30.42,WSW,242,1.0,7.0,67,0.00,,,0.00,88,Wunderground v.1.15,2013-01-30 15:12:00,
2013-01-30 08:17:00,18.5,9.4,30.42,SW,229,0.0,7.0,67,0.00,,,0.00,105,Wunderground v.1.15,2013-01-30 15:17:00,
2013-01-30 08:22:00,19.0,9.5,30.42,SW,230,0.0,3.0,66,0.00,,,0.00,125,Wunderground v.1.15,2013-01-30 15:22:00,
2013-01-30 08:27:00,19.5,10.0,30.42,SW,229,0.0,3.0,66,0.00,,,0.00,130,Wunderground v.1.15,2013-01-30 15:27:00,
2013-01-30 08:32:00,19.7,10.2,30.41,SW,227,0.0,1.0,66,0.00,,,0.00,165,Wunderground v.1.15,2013-01-30 15:32:00,
2013-01-30 08:37:00,20.4,10.8,30.41,SW,227,0.0,1.0,66,0.00,,,0.00,181,Wunderground v.1.15,2013-01-30 15:37:00,
2013-01-30 08:42:00,21.5,11.2,30.42,SW,234,0.0,0.0,64,0.00,,,0.00,200,Wunderground v.1.15,2013-01-30 15:42:00,
2013-01-30 08:47:00,22.5,11.4,30.41,WSW,237,3.0,7.0,62,0.00,,,0.00,216,Wunderground v.1.15,2013-01-30 15:47:00,
2013-01-30 08:52:00,23.6,11.7,30.41,SW,218,0.0,4.0,60,0.00,,,0.00,237,Wunderground v.1.15,2013-01-30 15:52:00,
2013-01-30 08:57:00,24.9,12.2,30.42,SW,218,0.0,4.0,58,0.00,,,0.00,253,Wunderground v.1.15,2013-01-30 15:57:00,
2013-01-30 09:02:00,26.5,12.9,30.42,SW,219,0.0,0.0,56,0.00,,,0.00,274,Wunderground v.1.15,2013-01-30 16:02:00,
2013-01-30 09:07:00,27.7,13.2,30.42,SW,218,0.0,0.0,54,0.00,,,0.00,290,Wunderground v.1.15,2013-01-30 16:07:00,
2013-01-30 09:12:00,28.0,12.6,30.42,SW,218,0.0,0.0,52,0.00,,,0.00,306,Wunderground v.1.15,2013-01-30 16:12:00,
2013-01-30 09:18:00,28.0,12.2,30.42,SW,218,0.0,0.0,51,0.00,,,0.00,318,Wunderground v.1.15,2013-01-30 16:18:00,
2013-01-30 09:23:00,28.5,12.6,30.42,SSE,149,0.0,0.0,51,0.00,,,0.00,336,Wunderground v.1.15,2013-01-30 16:23:00,
2013-01-30 09:29:00,28.9,12.6,30.43,SSE,149,0.0,0.0,50,0.00,,,0.00,345,Wunderground v.1.15,2013-01-30 16:29:00,
2013-01-30 09:34:00,29.9,12.1,30.42,SSE,149,0.0,0.0,47,0.00,,,0.00,360,Wunderground v.1.15,2013-01-30 16:34:00,
2013-01-30 09:39:00,31.1,13.2,30.43,SSE,149,0.0,0.0,47,0.00,,,0.00,374,Wunderground v.1.15,2013-01-30 16:39:00,
2013-01-30 09:44:00,31.7,13.3,30.43,SSE,149,0.0,0.0,46,0.00,,,0.00,392,Wunderground v.1.15,2013-01-30 16:44:00,
2013-01-30 09:49:00,32.1,13.1,30.43,SSE,149,0.0,0.0,45,0.00,,,0.00,406,Wunderground v.1.15,2013-01-30 16:49:00,
2013-01-30 09:54:00,32.6,13.6,30.44,SSE,148,0.0,0.0,45,0.00,,,0.00,415,Wunderground v.1.15,2013-01-30 16:54:00,
2013-01-30 09:59:00,32.7,13.7,30.44,SE,146,0.0,0.0,45,0.00,,,0.00,424,Wunderground v.1.15,2013-01-30 16:59:00,
2013-01-30 10:04:00,32.9,13.3,30.44,SE,141,0.0,0.0,44,0.00,,,0.00,441,Wunderground v.1.15,2013-01-30 17:04:00,
2013-01-30 10:09:00,32.9,13.3,30.44,SE,141,0.0,0.0,44,0.00,,,0.00,445,Wunderground v.1.15,2013-01-30 17:09:00,
2013-01-30 10:15:00,33.4,13.8,30.44,SE,141,0.0,0.0,44,0.00,,,0.00,459,Wunderground v.1.15,2013-01-30 17:15:00,
2013-01-30 10:20:00,34.1,13.4,30.43,SE,141,0.0,0.0,42,0.00,,,0.00,471,Wunderground v.1.15,2013-01-30 17:20:00,
2013-01-30 10:25:00,34.4,13.6,30.43,SE,141,0.0,0.0,42,0.00,,,0.00,480,Wunderground v.1.15,2013-01-30 17:25:00,
2013-01-30 10:30:00,34.1,14.4,30.42,SW,219,0.0,0.0,44,0.00,,,0.00,490,Wunderground v.1.15,2013-01-30 17:30:00,
2013-01-30 10:35:00,34.4,14.7,30.42,South,180,2.0,7.0,44,0.00,,,0.00,497,Wunderground v.1.15,2013-01-30 17:35:00,
2013-01-30 10:40:00,35.0,15.3,30.41,South,178,3.0,3.0,44,0.00,,,0.00,504,Wunderground v.1.15,2013-01-30 17:40:00,
2013-01-30 10:45:00,35.9,16.1,30.41,SW,219,6.0,8.0,44,0.00,,,0.00,517,Wunderground v.1.15,2013-01-30 17:45:00,
2013-01-30 10:50:00,35.5,16.2,30.41,SW,224,7.0,12.0,45,0.00,,,0.00,526,Wunderground v.1.15,2013-01-30 17:50:00,
2013-01-30 10:55:00,35.9,16.1,30.42,SW,233,6.0,12.0,44,0.00,,,0.00,533,Wunderground v.1.15,2013-01-30 17:55:00,
2013-01-30 11:00:00,36.3,15.4,30.42,SSW,210,0.0,5.0,42,0.00,,,0.00,541,Wunderground v.1.15,2013-01-30 18:00:00,
2013-01-30 11:05:00,36.4,16.0,30.42,SW,222,6.0,9.0,43,0.00,,,0.00,548,Wunderground v.1.15,2013-01-30 18:05:00,
2013-01-30 11:10:00,36.4,17.1,30.42,SSW,207,5.0,5.0,45,0.00,,,0.00,557,Wunderground v.1.15,2013-01-30 18:10:00,
2013-01-30 11:15:00,36.9,15.9,30.42,SSW,207,0.0,5.0,42,0.00,,,0.00,564,Wunderground v.1.15,2013-01-30 18:15:00,
2013-01-30 11:20:00,37.6,16.5,30.42,West,272,0.0,0.0,42,0.00,,,0.00,571,Wunderground v.1.15,2013-01-30 18:20:00,
2013-01-30 11:25:00,39.2,18.0,30.42,WSW,239,0.0,0.0,42,0.00,,,0.00,578,Wunderground v.1.15,2013-01-30 18:25:00,
2013-01-30 11:30:00,39.8,18.0,30.42,SW,226,0.0,0.0,41,0.00,,,0.00,585,Wunderground v.1.15,2013-01-30 18:30:00,
2013-01-30 11:35:00,39.1,17.4,30.41,SW,220,2.0,6.0,41,0.00,,,0.00,587,Wunderground v.1.15,2013-01-30 18:35:00,
2013-01-30 11:40:00,38.5,18.4,30.41,SW,215,2.0,6.0,44,0.00,,,0.00,584,Wunderground v.1.15,2013-01-30 18:40:00,
2013-01-30 11:45:00,38.6,17.5,30.41,SW,218,4.0,8.0,42,0.00,,,0.00,591,Wunderground v.1.15,2013-01-30 18:45:00,
2013-01-30 11:50:00,38.4,17.3,30.41,SW,236,0.0,3.0,42,0.00,,,0.00,594,Wunderground v.1.15,2013-01-30 18:50:00,
2013-01-30 11:55:00,39.1,20.0,30.40,North,355,1.0,8.0,46,0.00,,,0.00,599,Wunderground v.1.15,2013-01-30 18:55:00,
2013-01-30 12:00:00,40.2,21.6,30.40,North,10,9.0,11.0,47,0.00,,,0.00,603,Wunderground v.1.15,2013-01-30 19:00:00,
2013-01-30 12:05:00,40.7,22.0,30.39,NNE,14,12.0,14.0,47,0.00,,,0.00,603,Wunderground v.1.15,2013-01-30 19:05:00,
2013-01-30 12:10:00,40.9,21.7,30.39,NNE,27,3.0,15.0,46,0.00,,,0.00,605,Wunderground v.1.15,2013-01-30 19:10:00,
2013-01-30 12:15:00,40.8,22.1,30.38,NNW,344,12.0,16.0,47,0.00,,,0.00,603,Wunderground v.1.15,2013-01-30 19:15:00,
2013-01-30 12:20:00,40.8,22.6,30.38,North,360,10.0,14.0,48,0.00,,,0.00,608,Wunderground v.1.15,2013-01-30 19:20:00,
2013-01-30 12:25:00,41.0,22.8,30.38,North,9,5.0,16.0,48,0.00,,,0.00,606,Wunderground v.1.15,2013-01-30 19:25:00,
2013-01-30 12:30:00,41.1,22.9,30.38,NNW,348,10.0,12.0,48,0.00,,,0.00,605,Wunderground v.1.15,2013-01-30 19:30:00,
2013-01-30 12:35:00,41.0,22.8,30.37,North,349,4.0,12.0,48,0.00,,,0.00,608,Wunderground v.1.15,2013-01-30 19:35:00,
2013-01-30 12:40:00,41.1,23.4,30.36,NNE,17,4.0,7.0,49,0.00,,,0.00,608,Wunderground v.1.15,2013-01-30 19:40:00,
2013-01-30 12:45:00,41.4,23.6,30.36,North,360,11.0,13.0,49,0.00,,,0.00,608,Wunderground v.1.15,2013-01-30 19:45:00,
2013-01-30 12:50:00,41.6,23.3,30.36,North,360,6.0,8.0,48,0.00,,,0.00,608,Wunderground v.1.15,2013-01-30 19:50:00,
2013-01-30 12:55:00,41.7,22.9,30.36,NNW,345,6.0,12.0,47,0.00,,,0.00,605,Wunderground v.1.15,2013-01-30 19:55:00,
2013-01-30 13:01:00,41.7,23.4,30.36,NNE,18,5.0,7.0,48,0.00,,,0.00,603,Wunderground v.1.15,2013-01-30 20:01:00,
2013-01-30 13:06:00,41.9,23.6,30.36,North,10,3.0,11.0,48,0.00,,,0.00,598,Wunderground v.1.15,2013-01-30 20:06:00,
2013-01-30 13:11:00,42.0,23.7,30.35,North,9,6.0,7.0,48,0.00,,,0.00,596,Wunderground v.1.15,2013-01-30 20:11:00,
2013-01-30 13:16:00,42.2,23.9,30.35,NNE,18,6.0,9.0,48,0.00,,,0.00,594,Wunderground v.1.15,2013-01-30 20:16:00,
2013-01-30 13:21:00,42.4,23.6,30.35,North,355,4.0,6.0,47,0.00,,,0.00,591,Wunderground v.1.15,2013-01-30 20:21:00,
2013-01-30 13:26:00,42.7,23.8,30.35,NNW,347,2.0,8.0,47,0.00,,,0.00,585,Wunderground v.1.15,2013-01-30 20:26:00,
2013-01-30 13:31:00,43.2,23.8,30.35,North,355,1.0,3.0,46,0.00,,,0.00,580,Wunderground v.1.15,2013-01-30 20:31:00,
2013-01-30 13:36:00,43.4,23.4,30.34,North,9,2.0,8.0,45,0.00,,,0.00,577,Wunderground v.1.15,2013-01-30 20:36:00,
2013-01-30 13:41:00,44.0,24.5,30.34,NW,323,1.0,5.0,46,0.00,,,0.00,570,Wunderground v.1.15,2013-01-30 20:41:00,
2013-01-30 13:46:00,44.4,22.7,30.34,NW,313,3.0,5.0,42,0.00,,,0.00,564,Wunderground v.1.15,2013-01-30 20:46:00,
2013-01-30 13:51:00,44.3,23.7,30.33,NNW,332,0.0,4.0,44,0.00,,,0.00,559,Wunderground v.1.15,2013-01-30 20:51:00,
2013-01-30 13:56:00,44.7,24.1,30.33,NNW,331,1.0,4.0,44,0.00,,,0.00,552,Wunderground v.1.15,2013-01-30 20:56:00,
2013-01-30 14:01:00,45.0,23.8,30.32,NNW,337,3.0,6.0,43,0.00,,,0.00,543,Wunderground v.1.15,2013-01-30 21:01:00,
2013-01-30 14:06:00,45.1,24.5,30.32,North,360,6.0,11.0,44,0.00,,,0.00,536,Wunderground v.1.15,2013-01-30 21:06:00,
2013-01-30 14:11:00,45.2,23.4,30.32,NE,43,3.0,10.0,42,0.00,,,0.00,529,Wunderground v.1.15,2013-01-30 21:11:00,
2013-01-30 14:17:00,45.3,23.5,30.32,NE,47,2.0,11.0,42,0.00,,,0.00,520,Wunderground v.1.15,2013-01-30 21:17:00,
2013-01-30 14:22:00,45.5,23.7,30.32,NNE,20,2.0,9.0,42,0.00,,,0.00,512,Wunderground v.1.15,2013-01-30 21:22:00,
2013-01-30 14:27:00,45.7,24.5,30.31,ENE,62,5.0,9.0,43,0.00,,,0.00,503,Wunderground v.1.15,2013-01-30 21:27:00,
2013-01-30 14:32:00,45.6,24.4,30.31,NE,49,0.0,7.0,43,0.00,,,0.00,492,Wunderground v.1.15,2013-01-30 21:32:00,
2013-01-30 14:37:00,45.1,24.5,30.31,East,95,0.0,7.0,44,0.00,,,0.00,485,Wunderground v.1.15,2013-01-30 21:37:00,
2013-01-30 14:42:00,44.6,25.1,30.30,SE,143,1.0,5.0,46,0.00,,,0.00,475,Wunderground v.1.15,2013-01-30 21:42:00,
2013-01-30 14:47:00,44.8,24.2,30.30,SE,134,0.0,5.0,44,0.00,,,0.00,462,Wunderground v.1.15,2013-01-30 21:47:00,
2013-01-30 14:52:00,44.9,25.3,30.31,ESE,117,0.0,3.0,46,0.00,,,0.00,452,Wunderground v.1.15,2013-01-30 21:52:00,
2013-01-30 14:57:00,45.2,24.6,30.31,SE,130,0.0,3.0,44,0.00,,,0.00,441,Wunderground v.1.15,2013-01-30 21:57:00,
2013-01-30 15:02:00,45.4,24.2,30.31,SE,138,0.0,0.0,43,0.00,,,0.00,429,Wunderground v.1.15,2013-01-30 22:02:00,
2013-01-30 15:07:00,45.4,23.6,30.30,East,90,4.0,5.0,42,0.00,,,0.00,417,Wunderground v.1.15,2013-01-30 22:07:00,
2013-01-30 15:12:00,44.8,25.3,30.31,ESE,105,2.0,9.0,46,0.00,,,0.00,406,Wunderground v.1.15,2013-01-30 22:12:00,
2013-01-30 15:17:00,44.3,24.8,30.31,East,92,1.0,9.0,46,0.00,,,0.00,396,Wunderground v.1.15,2013-01-30 22:17:00,
2013-01-30 15:22:00,44.4,25.4,30.30,East,86,2.0,3.0,47,0.00,,,0.00,381,Wunderground v.1.15,2013-01-30 22:22:00,
2013-01-30 15:27:00,44.6,25.6,30.30,ENE,71,2.0,4.0,47,0.00,,,0.00,367,Wunderground v.1.15,2013-01-30 22:27:00,
2013-01-30 15:32:00,44.5,25.5,30.30,East,87,0.0,2.0,47,0.00,,,0.00,355,Wunderground v.1.15,2013-01-30 22:32:00,
2013-01-30 15:37:00,44.7,25.7,30.30,ESE,102,1.0,5.0,47,0.00,,,0.00,341,Wunderground v.1.15,2013-01-30 22:37:00,
2013-01-30 15:42:00,44.5,25.0,30.30,ESE,107,0.0,1.0,46,0.00,,,0.00,327,Wunderground v.1.15,2013-01-30 22:42:00,
2013-01-30 15:47:00,44.7,25.2,30.30,ESE,105,0.0,2.0,46,0.00,,,0.00,313,Wunderground v.1.15,2013-01-30 22:47:00,
2013-01-30 15:52:00,44.7,25.2,30.30,East,96,3.0,4.0,46,0.00,,,0.00,301,Wunderground v.1.15,2013-01-30 22:52:00,
2013-01-30 15:57:00,44.0,25.5,30.30,East,96,0.0,6.0,48,0.00,,,0.00,287,Wunderground v.1.15,2013-01-30 22:57:00,
2013-01-30 16:02:00,43.8,24.9,30.30,East,80,0.0,3.0,47,0.00,,,0.00,272,Wunderground v.1.15,2013-01-30 23:02:00,
2013-01-30 16:07:00,44.2,25.7,30.30,ENE,69,0.0,4.0,48,0.00,,,0.00,257,Wunderground v.1.15,2013-01-30 23:07:00,
2013-01-30 16:12:00,44.0,24.5,30.30,ENE,65,4.0,6.0,46,0.00,,,0.00,241,Wunderground v.1.15,2013-01-30 23:12:00,
2013-01-30 16:17:00,44.0,26.0,30.30,ENE,74,2.0,6.0,49,0.00,,,0.00,227,Wunderground v.1.15,2013-01-30 23:17:00,
2013-01-30 16:22:00,44.0,25.0,30.30,East,84,0.0,3.0,47,0.00,,,0.00,211,Wunderground v.1.15,2013-01-30 23:22:00,
2013-01-30 16:27:00,44.0,25.5,30.30,East,85,0.0,3.0,48,0.00,,,0.00,197,Wunderground v.1.15,2013-01-30 23:27:00,
2013-01-30 16:32:00,44.0,25.0,30.30,ESE,111,0.0,0.0,47,0.00,,,0.00,179,Wunderground v.1.15,2013-01-30 23:32:00,
2013-01-30 16:37:00,43.9,24.9,30.30,ESE,111,0.0,0.0,47,0.00,,,0.00,160,Wunderground v.1.15,2013-01-30 23:37:00,
2013-01-30 16:42:00,43.9,24.9,30.30,ESE,103,0.0,0.0,47,0.00,,,0.00,141,Wunderground v.1.15,2013-01-30 23:42:00,
2013-01-30 16:47:00,43.6,25.2,30.31,ESE,102,0.0,0.0,48,0.00,,,0.00,121,Wunderground v.1.15,2013-01-30 23:47:00,
2013-01-30 16:52:00,43.4,24.5,30.30,SE,131,0.0,0.0,47,0.00,,,0.00,104,Wunderground v.1.15,2013-01-30 23:52:00,
2013-01-30 16:57:00,43.3,25.4,30.30,ESE,123,0.0,0.0,49,0.00,,,0.00,88,Wunderground v.1.15,2013-01-30 23:57:00,
2013-01-30 17:02:00,43.1,25.2,30.30,ESE,123,0.0,0.0,49,0.00,,,0.00,72,Wunderground v.1.15,2013-01-31 00:02:00,
2013-01-30 17:07:00,42.7,24.8,30.30,ESE,114,0.0,0.0,49,0.00,,,0.00,56,Wunderground v.1.15,2013-01-31 00:07:00,
2013-01-30 17:12:00,42.2,24.4,30.30,SE,127,0.0,0.0,49,0.00,,,0.00,40,Wunderground v.1.15,2013-01-31 00:12:00,
2013-01-30 17:17:00,41.6,24.8,30.31,ESE,107,0.0,3.0,51,0.00,,,0.00,30,Wunderground v.1.15,2013-01-31 00:17:00,
2013-01-30 17:22:00,41.1,24.3,30.30,SE,126,0.0,0.0,51,0.00,,,0.00,19,Wunderground v.1.15,2013-01-31 00:22:00,
2013-01-30 17:27:00,40.5,24.2,30.30,ESE,115,0.0,0.0,52,0.00,,,0.00,12,Wunderground v.1.15,2013-01-31 00:27:00,
2013-01-30 17:32:00,39.9,24.1,30.30,ESE,117,0.0,0.0,53,0.00,,,0.00,12,Wunderground v.1.15,2013-01-31 00:32:00,
2013-01-30 17:37:00,39.1,23.8,30.31,ESE,121,0.0,0.0,54,0.00,,,0.00,11,Wunderground v.1.15,2013-01-31 00:37:00,
2013-01-30 17:42:00,38.6,23.8,30.31,ESE,123,0.0,0.0,55,0.00,,,0.00,9,Wunderground v.1.15,2013-01-31 00:42:00,
2013-01-30 17:47:00,38.3,23.5,30.31,ESE,123,0.0,0.0,55,0.00,,,0.00,7,Wunderground v.1.15,2013-01-31 00:47:00,
2013-01-30 17:52:00,37.9,23.6,30.31,ESE,123,0.0,0.0,56,0.00,,,0.00,5,Wunderground v.1.15,2013-01-31 00:52:00,
2013-01-30 17:57:00,37.3,23.4,30.31,ESE,123,0.0,0.0,57,0.00,,,0.00,0,Wunderground v.1.15,2013-01-31 00:57:00,
2013-01-30 18:02:00,36.8,23.4,30.31,ESE,123,0.0,0.0,58,0.00,,,0.00,0,Wunderground v.1.15,2013-01-31 01:02:00,
2013-01-30 18:07:00,36.5,23.5,30.31,SE,135,0.0,0.0,59,0.00,,,0.00,0,Wunderground v.1.15,2013-01-31 01:07:00,
2013-01-30 18:12:00,36.2,23.2,30.31,SE,136,0.0,0.0,59,0.00,,,0.00,0,Wunderground v.1.15,2013-01-31 01:12:00,
2013-01-30 18:17:00,36.1,22.7,30.32,SE,136,0.0,0.0,58,0.00,,,0.00,0,Wunderground v.1.15,2013-01-31 01:17:00,
2013-01-30 18:22:00,36.3,22.9,30.32,SSE,155,0.0,0.0,58,0.00,,,0.00,0,Wunderground v.1.15,2013-01-31 01:22:00,
2013-01-30 18:27:00,36.3,22.9,30.32,SSE,159,0.0,0.0,58,0.00,,,0.00,0,Wunderground v.1.15,2013-01-31 01:27:00,
2013-01-30 18:32:00,36.0,22.6,30.32,SSE,159,0.0,0.0,58,0.00,,,0.00,0,Wunderground v.1.15,2013-01-31 01:32:00,
2013-01-30 18:37:00,35.6,22.7,30.32,SSE,159,0.0,0.0,59,0.00,,,0.00,0,Wunderground v.1.15,2013-01-31 01:37:00,
2013-01-30 18:42:00,35.0,22.5,30.32,SSE,159,0.0,0.0,60,0.00,,,0.00,0,Wunderground v.1.15,2013-01-31 01:42:00,
2013-01-30 18:47:00,34.3,22.2,30.33,SSE,159,0.0,0.0,61,0.00,,,0.00,0,Wunderground v.1.15,2013-01-31 01:47:00,
2013-01-30 18:52:00,34.1,22.4,30.33,SSE,159,0.0,0.0,62,0.00,,,0.00,0,Wunderground v.1.15,2013-01-31 01:52:00,
2013-01-30 18:57:00,34.3,22.2,30.33,SSE,159,0.0,0.0,61,0.00,,,0.00,0,Wunderground v.1.15,2013-01-31 01:57:00,
2013-01-30 19:02:00,34.0,22.3,30.33,WNW,294,0.0,0.0,62,0.00,,,0.00,0,Wunderground v.1.15,2013-01-31 02:02:00,
2013-01-30 19:07:00,32.9,22.0,30.33,WNW,295,0.0,0.0,64,0.00,,,0.00,0,Wunderground v.1.15,2013-01-31 02:07:00,
2013-01-30 19:12:00,32.5,22.4,30.33,WNW,295,0.0,0.0,66,0.00,,,0.00,0,Wunderground v.1.15,2013-01-31 02:12:00,
2013-01-30 19:17:00,31.9,22.5,30.33,WNW,297,0.0,0.0,68,0.00,,,0.00,0,Wunderground v.1.15,2013-01-31 02:17:00,
2013-01-30 19:22:00,31.5,22.1,30.33,WNW,297,0.0,0.0,68,0.00,,,0.00,0,Wunderground v.1.15,2013-01-31 02:22:00,
2013-01-30 19:27:00,31.4,22.1,30.33,NNW,329,0.0,0.0,68,0.00,,,0.00,0,Wunderground v.1.15,2013-01-31 02:27:00,
2013-01-30 19:32:00,31.2,22.2,30.33,NNW,329,0.0,0.0,69,0.00,,,0.00,0,Wunderground v.1.15,2013-01-31 02:32:00,
2013-01-30 19:37:00,31.1,22.1,30.33,NNW,329,0.0,0.0,69,0.00,,,0.00,0,Wunderground v.1.15,2013-01-31 02:37:00,
2013-01-30 19:43:00,30.8,21.8,30.33,NNW,329,0.0,0.0,69,0.00,,,0.00,0,Wunderground v.1.15,2013-01-31 02:43:00,
2013-01-30 19:48:00,30.4,21.8,30.34,NNW,329,0.0,0.0,70,0.00,,,0.00,0,Wunderground v.1.15,2013-01-31 02:48:00,
2013-01-30 19:53:00,29.8,21.9,30.33,NNW,329,0.0,0.0,72,0.00,,,0.00,0,Wunderground v.1.15,2013-01-31 02:53:00,
2013-01-30 19:58:00,29.4,21.8,30.33,NNW,329,0.0,0.0,73,0.00,,,0.00,0,Wunderground v.1.15,2013-01-31 02:58:00,
2013-01-30 20:03:00,28.8,21.2,30.33,NNW,329,0.0,0.0,73,0.00,,,0.00,0,Wunderground v.1.15,2013-01-31 03:03:00,
2013-01-30 20:08:00,28.0,20.8,30.33,NNW,329,0.0,0.0,74,0.00,,,0.00,0,Wunderground v.1.15,2013-01-31 03:08:00,
2013-01-30 20:13:00,27.6,21.0,30.33,NNW,329,0.0,0.0,76,0.00,,,0.00,0,Wunderground v.1.15,2013-01-31 03:13:00,
2013-01-30 20:18:00,27.7,21.4,30.33,NNW,329,0.0,0.0,77,0.00,,,0.00,0,Wunderground v.1.15,2013-01-31 03:18:00,
2013-01-30 20:23:00,27.6,21.6,30.34,NNW,329,0.0,0.0,78,0.00,,,0.00,0,Wunderground v.1.15,2013-01-31 03:23:00,
2013-01-30 20:28:00,27.4,21.4,30.34,NNW,329,0.0,0.0,78,0.00,,,0.00,0,Wunderground v.1.15,2013-01-31 03:28:00,
2013-01-30 20:33:00,27.3,21.3,30.34,NNW,329,0.0,0.0,78,0.00,,,0.00,0,Wunderground v.1.15,2013-01-31 03:33:00,
2013-01-30 20:39:00,27.2,21.5,30.34,NNW,329,0.0,3.0,79,0.00,,,0.00,0,Wunderground v.1.15,2013-01-31 03:39:00,
2013-01-30 20:44:00,27.3,21.6,30.34,NNW,329,0.0,0.0,79,0.00,,,0.00,0,Wunderground v.1.15,2013-01-31 03:44:00,
2013-01-30 20:49:00,27.3,21.6,30.35,NNW,329,0.0,0.0,79,0.00,,,0.00,0,Wunderground v.1.15,2013-01-31 03:49:00,
2013-01-30 20:54:00,27.2,21.5,30.34,NNW,329,0.0,0.0,79,0.00,,,0.00,0,Wunderground v.1.15,2013-01-31 03:54:00,
2013-01-30 20:59:00,27.0,21.4,30.35,NNW,329,0.0,0.0,79,0.00,,,0.00,0,Wunderground v.1.15,2013-01-31 03:59:00,
2013-01-30 21:04:00,26.6,21.3,30.35,NNW,329,0.0,0.0,80,0.00,,,0.00,0,Wunderground v.1.15,2013-01-31 04:04:00,
2013-01-30 21:09:00,26.4,21.1,30.35,NNW,329,0.0,0.0,80,0.00,,,0.00,0,Wunderground v.1.15,2013-01-31 04:09:00,
2013-01-30 21:14:00,26.2,20.9,30.35,NNW,329,0.0,0.0,80,0.00,,,0.00,0,Wunderground v.1.15,2013-01-31 04:14:00,
2013-01-30 21:19:00,26.0,20.7,30.35,NNW,329,0.0,0.0,80,0.00,,,0.00,0,Wunderground v.1.15,2013-01-31 04:19:00,
2013-01-30 21:24:00,25.8,20.8,30.35,NNW,329,0.0,0.0,81,0.00,,,0.00,0,Wunderground v.1.15,2013-01-31 04:24:00,
2013-01-30 21:29:00,25.7,20.7,30.35,NNW,329,0.0,0.0,81,0.00,,,0.00,0,Wunderground v.1.15,2013-01-31 04:29:00,
2013-01-30 21:34:00,25.8,20.8,30.34,NNW,329,0.0,0.0,81,0.00,,,0.00,0,Wunderground v.1.15,2013-01-31 04:34:00,
2013-01-30 21:39:00,25.6,20.6,30.35,NNW,329,0.0,0.0,81,0.00,,,0.00,0,Wunderground v.1.15,2013-01-31 04:39:00,
2013-01-30 21:44:00,25.5,20.8,30.35,NNW,329,0.0,0.0,82,0.00,,,0.00,0,Wunderground v.1.15,2013-01-31 04:44:00,
2013-01-30 21:49:00,25.7,21.0,30.35,NNW,329,0.0,0.0,82,0.00,,,0.00,0,Wunderground v.1.15,2013-01-31 04:49:00,
2013-01-30 21:54:00,25.7,21.0,30.35,NNW,329,0.0,0.0,82,0.00,,,0.00,0,Wunderground v.1.15,2013-01-31 04:54:00,
2013-01-30 21:59:00,25.7,21.0,30.35,NNW,329,0.0,0.0,82,0.00,,,0.00,0,Wunderground v.1.15,2013-01-31 04:59:00,
2013-01-30 22:00:00,25.7,21.0,30.35,NNW,329,0.0,0.0,82,0.00,,,0.00,0,Wunderground v.1.15,2013-01-31 05:00:00,
2013-01-30 22:05:00,25.8,21.1,30.35,NNW,329,0.0,0.0,82,0.00,,,0.00,0,Wunderground v.1.15,2013-01-31 05:05:00,
2013-01-30 22:10:00,25.7,21.0,30.35,NNW,329,0.0,0.0,82,0.00,,,0.00,0,Wunderground v.1.15,2013-01-31 05:10:00,
2013-01-30 22:15:00,25.8,21.1,30.35,NNW,329,0.0,0.0,82,0.00,,,0.00,0,Wunderground v.1.15,2013-01-31 05:15:00,
2013-01-30 22:20:00,25.8,21.1,30.35,NNW,329,0.0,0.0,82,0.00,,,0.00,0,Wunderground v.1.15,2013-01-31 05:20:00,
2013-01-30 22:25:00,25.5,20.8,30.35,NNW,329,0.0,0.0,82,0.00,,,0.00,0,Wunderground v.1.15,2013-01-31 05:25:00,
2013-01-30 22:30:00,25.1,20.4,30.35,NNW,329,0.0,0.0,82,0.00,,,0.00,0,Wunderground v.1.15,2013-01-31 05:30:00,
2013-01-30 22:36:00,25.2,20.5,30.35,NNW,329,0.0,0.0,82,0.00,,,0.00,0,Wunderground v.1.15,2013-01-31 05:36:00,
2013-01-30 22:41:00,25.6,21.2,30.35,SSW,205,0.0,0.0,83,0.00,,,0.00,0,Wunderground v.1.15,2013-01-31 05:41:00,
2013-01-30 22:46:00,26.2,21.7,30.35,SSW,205,0.0,0.0,83,0.00,,,0.00,0,Wunderground v.1.15,2013-01-31 05:46:00,
2013-01-30 22:51:00,26.3,21.6,30.35,SSW,205,0.0,0.0,82,0.00,,,0.00,0,Wunderground v.1.15,2013-01-31 05:51:00,
2013-01-30 22:56:00,26.1,21.1,30.35,SSW,206,0.0,0.0,81,0.00,,,0.00,0,Wunderground v.1.15,2013-01-31 05:56:00,
2013-01-30 23:01:00,25.6,20.6,30.35,SSW,205,0.0,0.0,81,0.00,,,0.00,0,Wunderground v.1.15,2013-01-31 06:01:00,
2013-01-30 23:06:00,25.6,20.9,30.35,SSW,206,0.0,0.0,82,0.00,,,0.00,0,Wunderground v.1.15,2013-01-31 06:06:00,
2013-01-30 23:11:00,28.1,23.9,30.35,NNE,19,3.0,7.0,84,0.00,,,0.00,0,Wunderground v.1.15,2013-01-31 06:11:00,
2013-01-30 23:16:00,32.4,26.9,30.35,NNE,19,9.0,12.0,80,0.00,,,0.00,0,Wunderground v.1.15,2013-01-31 06:16:00,
2013-01-30 23:21:00,34.1,26.3,30.35,NNE,15,4.0,10.0,73,0.00,,,0.00,0,Wunderground v.1.15,2013-01-31 06:21:00,
2013-01-30 23:26:00,34.7,25.6,30.35,NNE,16,5.0,10.0,69,0.00,,,0.00,0,Wunderground v.1.15,2013-01-31 06:26:00,
2013-01-30 23:31:00,35.2,25.3,30.35,NNE,20,5.0,11.0,67,0.00,,,0.00,0,Wunderground v.1.15,2013-01-31 06:31:00,
2013-01-30 23:36:00,35.4,25.2,30.35,North,11,6.0,11.0,66,0.00,,,0.00,0,Wunderground v.1.15,2013-01-31 06:36:00,
2013-01-30 23:41:00,35.2,25.0,30.35,NNE,14,4.0,7.0,66,0.00,,,0.00,0,Wunderground v.1.15,2013-01-31 06:41:00,
2013-01-30 23:46:00,35.2,25.0,30.35,North,360,0.0,7.0,66,0.00,,,0.00,0,Wunderground v.1.15,2013-01-31 06:46:00,
2013-01-30 23:52:00,35.1,24.5,30.35,North,9,0.0,3.0,65,0.00,,,0.00,0,Wunderground v.1.15,2013-01-31 06:52:00,
2013-01-30 23:57:00,35.0,24.4,30.35,NNE,23,0.0,6.0,65,0.00,,,0.00,0,Wunderground v.1.15,2013-01-31 06:57:00,